BAW811N EIDW-EGLL

Flight info

Callsign BAW811N
Flight time 0h 59m
Altitude 33000
Route PESIT2J PESIT DCT BAKUR DCT ECCIT DCT GUBJE DCT GISOK DCT TACQI DCT FONZU DCT ELRIP DCT OTMET OTMET1H
Aircraft A320/M-SDE3FGHIKRWXY/S

Departure

Time 2026-05-07 13:05
Airport Dublin Airport (EIDW)

Arrival

Time 2026-05-07 14:04
Airport London Heathrow Airport (EGLL)
Time Latitude Longitude Altitude Speed Heading
2026-05-07 12:08 53.42862 -6.24813 211 ft 0 kts 135°
2026-05-07 12:48 53.42873 -6.24833 215 ft 4 kts 134°
2026-05-07 12:49 53.42891 -6.24864 214 ft 2 kts 134°
2026-05-07 12:49 53.42904 -6.24882 211 ft 4 kts 196°
2026-05-07 12:49 53.42924 -6.24858 211 ft 4 kts 229°
2026-05-07 12:49 53.42938 -6.24823 211 ft 4 kts 254°
2026-05-07 12:50 53.42940 -6.24784 217 ft 3 kts 275°
2026-05-07 12:50 53.42939 -6.24757 211 ft 0 kts 275°
2026-05-07 12:54 53.42939 -6.24759 211 ft 1 kts 275°
2026-05-07 12:55 53.42941 -6.24810 217 ft 6 kts 266°
2026-05-07 12:55 53.42916 -6.24873 211 ft 8 kts 227°
2026-05-07 12:55 53.42874 -6.24948 211 ft 10 kts 227°
2026-05-07 12:55 53.42820 -6.25037 215 ft 12 kts 213°
2026-05-07 12:56 53.42764 -6.25110 211 ft 7 kts 224°
2026-05-07 12:56 53.42724 -6.25179 214 ft 9 kts 226°
2026-05-07 12:56 53.42673 -6.25267 211 ft 12 kts 226°
2026-05-07 12:56 53.42608 -6.25378 213 ft 17 kts 225°
2026-05-07 12:57 53.42516 -6.25534 214 ft 19 kts 226°
2026-05-07 12:57 53.42417 -6.25704 214 ft 22 kts 224°
2026-05-07 12:57 53.42318 -6.25874 218 ft 15 kts 226°
2026-05-07 12:57 53.42259 -6.26036 216 ft 18 kts 257°
2026-05-07 12:58 53.42264 -6.26251 211 ft 20 kts 275°
2026-05-07 12:58 53.42272 -6.26411 214 ft 13 kts 275°
2026-05-07 12:58 53.42281 -6.26572 216 ft 15 kts 275°
2026-05-07 12:58 53.42292 -6.26759 211 ft 17 kts 275°
2026-05-07 12:59 53.42303 -6.26974 211 ft 20 kts 275°
2026-05-07 12:59 53.42316 -6.27215 213 ft 22 kts 275°
2026-05-07 12:59 53.42331 -6.27483 211 ft 24 kts 275°
2026-05-07 12:59 53.42347 -6.27775 211 ft 26 kts 275°
2026-05-07 13:00 53.42364 -6.28088 215 ft 28 kts 275°
2026-05-07 13:00 53.42383 -6.28419 211 ft 23 kts 275°
2026-05-07 13:00 53.42395 -6.28636 211 ft 20 kts 275°
2026-05-07 13:00 53.42408 -6.28878 211 ft 21 kts 275°
2026-05-07 13:01 53.42396 -6.29029 211 ft 14 kts 232°
2026-05-07 13:01 53.42392 -6.29037 211 ft 0 kts 229°
2026-05-07 13:03 53.42384 -6.29051 211 ft 5 kts 225°
2026-05-07 13:03 53.42340 -6.29079 210 ft 8 kts 182°
2026-05-07 13:03 53.42274 -6.29067 213 ft 11 kts 173°
2026-05-07 13:04 53.42242 -6.28997 209 ft 0 kts 96°
2026-05-07 13:04 53.42241 -6.28988 209 ft 3 kts 96°
2026-05-07 13:04 53.42227 -6.28730 215 ft 55 kts 95°
2026-05-07 13:05 53.42172 -6.27723 210 ft 116 kts 95°
2026-05-07 13:05 53.42082 -6.26129 242 ft 157 kts 96°
2026-05-07 13:05 53.41976 -6.24352 840 ft 153 kts 97°
2026-05-07 13:05 53.41875 -6.22481 1273 ft 170 kts 96°
2026-05-07 13:06 53.41769 -6.20321 1424 ft 202 kts 95°
2026-05-07 13:06 53.41656 -6.17851 1848 ft 223 kts 95°
2026-05-07 13:06 53.41515 -6.15121 2273 ft 246 kts 96°
2026-05-07 13:06 53.41362 -6.12216 3086 ft 253 kts 97°
2026-05-07 13:07 53.41193 -6.09242 3906 ft 261 kts 98°
2026-05-07 13:07 53.41011 -6.06191 4742 ft 266 kts 99°
2026-05-07 13:07 53.40622 -6.03167 5560 ft 266 kts 121°
2026-05-07 13:07 53.39380 -6.00965 6361 ft 262 kts 155°
2026-05-07 13:08 53.37637 -6.00254 7193 ft 260 kts 179°
2026-05-07 13:08 53.35845 -6.00366 8025 ft 262 kts 186°
2026-05-07 13:08 53.34026 -6.00721 8856 ft 264 kts 188°
2026-05-07 13:08 53.32189 -6.01091 9650 ft 267 kts 187°
2026-05-07 13:09 53.30320 -6.01404 10276 ft 277 kts 186°
2026-05-07 13:09 53.28342 -6.01919 10496 ft 301 kts 194°
2026-05-07 13:09 53.26276 -6.03008 10802 ft 317 kts 198°
2026-05-07 13:09 53.24150 -6.04139 11406 ft 323 kts 198°
2026-05-07 13:10 53.21981 -6.05244 12061 ft 328 kts 197°
2026-05-07 13:10 53.19777 -6.06284 12699 ft 332 kts 192°
2026-05-07 13:10 53.17497 -6.06769 13333 ft 336 kts 186°
2026-05-07 13:10 53.15161 -6.07140 13974 ft 339 kts 186°
2026-05-07 13:11 53.12800 -6.07496 14594 ft 343 kts 183°
2026-05-07 13:11 53.10400 -6.07265 15184 ft 348 kts 172°
2026-05-07 13:11 53.08032 -6.06305 15763 ft 353 kts 166°
2026-05-07 13:11 53.05657 -6.05209 16331 ft 356 kts 166°
2026-05-07 13:12 53.03258 -6.04108 16898 ft 359 kts 166°
2026-05-07 13:12 53.01621 -6.03361 17278 ft 361 kts 166°
2026-05-07 13:12 52.99215 -6.02269 17826 ft 365 kts 166°
2026-05-07 13:12 52.96754 -6.01155 18380 ft 368 kts 166°
2026-05-07 13:13 52.94269 -6.00028 18943 ft 371 kts 166°
2026-05-07 13:13 52.91766 -5.98897 19519 ft 375 kts 166°
2026-05-07 13:13 52.89237 -5.97756 20072 ft 378 kts 166°
2026-05-07 13:13 52.86691 -5.96602 20626 ft 381 kts 166°
2026-05-07 13:14 52.84119 -5.95432 21153 ft 384 kts 166°
2026-05-07 13:14 52.81534 -5.94260 21663 ft 386 kts 166°
2026-05-07 13:14 52.78931 -5.93089 22139 ft 389 kts 166°
2026-05-07 13:14 52.76303 -5.91904 22607 ft 392 kts 166°
2026-05-07 13:15 52.73658 -5.90718 23059 ft 395 kts 166°
2026-05-07 13:15 52.70993 -5.89527 23501 ft 398 kts 166°
2026-05-07 13:15 52.68313 -5.88324 23934 ft 401 kts 166°
2026-05-07 13:15 52.65608 -5.87110 24358 ft 404 kts 166°
2026-05-07 13:16 52.62892 -5.85895 24775 ft 406 kts 166°
2026-05-07 13:16 52.60158 -5.84676 25174 ft 408 kts 166°
2026-05-07 13:16 52.57446 -5.83466 25568 ft 410 kts 166°
2026-05-07 13:16 52.54648 -5.82217 25936 ft 412 kts 166°
2026-05-07 13:17 52.51871 -5.80982 26304 ft 415 kts 166°
2026-05-07 13:17 52.49111 -5.79755 26663 ft 417 kts 166°
2026-05-07 13:17 52.46309 -5.78507 27027 ft 418 kts 166°
2026-05-07 13:17 52.43487 -5.77253 27386 ft 421 kts 166°
2026-05-07 13:18 52.40653 -5.75999 27733 ft 423 kts 165°
2026-05-07 13:18 52.37802 -5.74732 28075 ft 425 kts 165°
2026-05-07 13:18 52.34939 -5.73446 28407 ft 427 kts 165°
2026-05-07 13:18 52.32065 -5.72161 28737 ft 429 kts 165°
2026-05-07 13:19 52.29179 -5.70877 29072 ft 430 kts 165°
2026-05-07 13:19 52.26344 -5.69502 29379 ft 432 kts 162°
2026-05-07 13:19 52.23460 -5.68071 29682 ft 433 kts 166°
2026-05-07 13:19 52.20510 -5.66977 30018 ft 434 kts 168°
2026-05-07 13:20 52.17565 -5.65953 30441 ft 432 kts 168°
2026-05-07 13:20 52.14649 -5.64768 30847 ft 432 kts 162°
2026-05-07 13:20 52.11871 -5.62925 31250 ft 431 kts 153°
2026-05-07 13:20 52.09307 -5.60404 31643 ft 431 kts 146°
2026-05-07 13:21 52.06840 -5.57627 32032 ft 430 kts 146°
2026-05-07 13:21 52.04361 -5.54894 32394 ft 430 kts 149°
2026-05-07 13:21 52.01720 -5.52630 32759 ft 429 kts 154°
2026-05-07 13:21 51.99033 -5.50504 32973 ft 430 kts 154°
2026-05-07 13:22 51.93651 -5.46271 33025 ft 430 kts 155°
2026-05-07 13:22 51.88304 -5.42075 33026 ft 430 kts 155°
2026-05-07 13:23 51.82920 -5.37849 33026 ft 430 kts 155°
2026-05-07 13:23 51.77536 -5.33631 33025 ft 430 kts 155°
2026-05-07 13:24 51.72150 -5.29420 33027 ft 430 kts 155°
2026-05-07 13:24 51.66767 -5.25215 33020 ft 430 kts 155°
2026-05-07 13:25 51.61376 -5.21036 33016 ft 430 kts 155°
2026-05-07 13:25 51.56015 -5.16895 33017 ft 430 kts 155°
2026-05-07 13:26 51.50678 -5.12538 33015 ft 431 kts 148°
2026-05-07 13:26 51.46028 -5.06440 33017 ft 432 kts 139°
2026-05-07 13:27 51.41515 -5.00059 33019 ft 433 kts 140°
2026-05-07 13:27 51.36989 -4.93694 33020 ft 433 kts 140°
2026-05-07 13:28 51.32456 -4.87329 33023 ft 433 kts 140°
2026-05-07 13:28 51.27921 -4.80964 33026 ft 433 kts 140°
2026-05-07 13:29 51.23385 -4.74620 33031 ft 434 kts 140°
2026-05-07 13:29 51.18842 -4.68279 33034 ft 434 kts 140°
2026-05-07 13:30 51.14318 -4.61986 33037 ft 434 kts 140°
2026-05-07 13:30 51.09760 -4.55663 33032 ft 434 kts 140°
2026-05-07 13:31 51.05262 -4.49260 33037 ft 435 kts 134°
2026-05-07 13:31 51.01747 -4.41414 33035 ft 437 kts 122°
2026-05-07 13:32 50.98631 -4.33114 33032 ft 438 kts 122°
2026-05-07 13:32 50.95492 -4.24824 33029 ft 438 kts 122°
2026-05-07 13:33 50.92357 -4.16533 33036 ft 439 kts 122°
2026-05-07 13:33 50.89233 -4.08279 33033 ft 440 kts 122°
2026-05-07 13:34 50.84488 -3.95825 33035 ft 441 kts 123°
2026-05-07 13:35 50.81676 -3.87204 33042 ft 444 kts 110°
2026-05-07 13:35 50.79745 -3.77916 33047 ft 445 kts 110°
2026-05-07 13:36 50.77798 -3.68623 33052 ft 445 kts 110°
2026-05-07 13:36 50.75846 -3.59390 33056 ft 445 kts 110°
2026-05-07 13:37 50.73876 -3.50112 33057 ft 445 kts 110°
2026-05-07 13:37 50.71912 -3.40837 33057 ft 445 kts 110°
2026-05-07 13:38 50.69942 -3.31573 33056 ft 445 kts 110°
2026-05-07 13:38 50.67951 -3.22305 32823 ft 446 kts 110°
2026-05-07 13:38 50.66950 -3.17672 32575 ft 446 kts 110°
2026-05-07 13:39 50.65947 -3.13044 32320 ft 446 kts 110°
2026-05-07 13:39 50.64942 -3.08419 32072 ft 446 kts 110°
2026-05-07 13:39 50.64032 -3.03812 31824 ft 448 kts 104°
2026-05-07 13:39 50.63542 -2.98962 31573 ft 449 kts 95°
2026-05-07 13:40 50.63544 -2.94043 31328 ft 449 kts 85°
2026-05-07 13:40 50.64011 -2.89182 31077 ft 449 kts 80°
2026-05-07 13:40 50.64572 -2.84349 30826 ft 447 kts 81°
2026-05-07 13:40 50.65113 -2.79548 30373 ft 443 kts 81°
2026-05-07 13:41 50.65640 -2.74781 29802 ft 440 kts 81°
2026-05-07 13:41 50.66160 -2.70049 29236 ft 437 kts 81°
2026-05-07 13:41 50.66673 -2.65348 28671 ft 434 kts 81°
2026-05-07 13:41 50.67180 -2.60672 28116 ft 431 kts 81°
2026-05-07 13:42 50.67685 -2.56015 27562 ft 429 kts 81°
2026-05-07 13:42 50.68056 -2.51433 27020 ft 425 kts 88°
2026-05-07 13:42 50.67979 -2.46824 26724 ft 417 kts 95°
2026-05-07 13:42 50.67772 -2.42245 26465 ft 418 kts 95°
2026-05-07 13:43 50.67582 -2.37684 26183 ft 417 kts 95°
2026-05-07 13:43 50.67399 -2.33118 25899 ft 416 kts 95°
2026-05-07 13:43 50.67214 -2.28566 25614 ft 415 kts 95°
2026-05-07 13:43 50.67027 -2.24039 25330 ft 413 kts 95°
2026-05-07 13:44 50.66834 -2.19525 25056 ft 411 kts 95°
2026-05-07 13:44 50.66639 -2.15034 24782 ft 410 kts 95°
2026-05-07 13:44 50.66441 -2.10557 24513 ft 408 kts 95°
2026-05-07 13:44 50.66240 -2.06099 24236 ft 407 kts 95°
2026-05-07 13:45 50.66095 -2.01710 23947 ft 406 kts 90°
2026-05-07 13:45 50.66154 -1.97274 23682 ft 404 kts 90°
2026-05-07 13:45 50.66208 -1.92855 23406 ft 403 kts 90°
2026-05-07 13:45 50.66259 -1.88449 23135 ft 401 kts 90°
2026-05-07 13:46 50.66307 -1.84064 22861 ft 399 kts 90°
2026-05-07 13:46 50.66357 -1.79689 22593 ft 398 kts 90°
2026-05-07 13:46 50.66408 -1.75329 22317 ft 396 kts 90°
2026-05-07 13:46 50.66453 -1.71006 22051 ft 394 kts 90°
2026-05-07 13:47 50.66492 -1.66684 21784 ft 393 kts 90°
2026-05-07 13:47 50.66530 -1.62391 21516 ft 391 kts 90°
2026-05-07 13:47 50.66619 -1.58170 21251 ft 390 kts 85°
2026-05-07 13:47 50.67132 -1.53917 20974 ft 390 kts 75°
2026-05-07 13:48 50.68092 -1.49987 20517 ft 389 kts 64°
2026-05-07 13:48 50.69289 -1.46165 20088 ft 387 kts 64°
2026-05-07 13:48 50.70465 -1.42376 19674 ft 384 kts 65°
2026-05-07 13:48 50.71633 -1.38593 19253 ft 382 kts 65°
2026-05-07 13:49 50.72785 -1.34835 18837 ft 379 kts 65°
2026-05-07 13:49 50.73931 -1.31092 18419 ft 377 kts 65°
2026-05-07 13:49 50.75101 -1.27405 18000 ft 375 kts 60°
2026-05-07 13:49 50.76616 -1.24070 17593 ft 373 kts 48°
2026-05-07 13:50 50.78504 -1.21289 17187 ft 370 kts 37°
2026-05-07 13:50 50.80633 -1.19032 16787 ft 368 kts 32°
2026-05-07 13:50 50.82777 -1.16838 16387 ft 365 kts 33°
2026-05-07 13:50 50.84899 -1.14655 15987 ft 363 kts 33°
2026-05-07 13:51 50.87010 -1.12478 15589 ft 360 kts 33°
2026-05-07 13:51 50.89098 -1.10317 15198 ft 358 kts 33°
2026-05-07 13:51 50.91148 -1.08193 14818 ft 356 kts 33°
2026-05-07 13:51 50.93214 -1.06057 14432 ft 353 kts 33°
2026-05-07 13:52 50.95266 -1.03932 14045 ft 351 kts 33°
2026-05-07 13:52 50.97304 -1.01819 13664 ft 348 kts 33°
2026-05-07 13:52 50.99334 -0.99755 13234 ft 345 kts 28°
2026-05-07 13:52 51.01555 -0.98517 13001 ft 334 kts 12°
2026-05-07 13:53 51.03793 -0.97759 12881 ft 322 kts 11°
2026-05-07 13:53 51.05937 -0.97062 12589 ft 308 kts 11°
2026-05-07 13:53 51.08018 -0.96391 12073 ft 302 kts 11°
2026-05-07 13:53 51.10074 -0.95731 11647 ft 301 kts 11°
2026-05-07 13:54 51.12119 -0.95078 11167 ft 298 kts 11°
2026-05-07 13:54 51.14142 -0.94436 10660 ft 295 kts 11°
2026-05-07 13:54 51.16154 -0.93879 10167 ft 292 kts
2026-05-07 13:54 51.18170 -0.93719 9724 ft 289 kts
2026-05-07 13:55 51.20183 -0.93642 9295 ft 287 kts
2026-05-07 13:55 51.22164 -0.93577 8870 ft 284 kts
2026-05-07 13:55 51.24108 -0.93520 8447 ft 282 kts
2026-05-07 13:55 51.26054 -0.93463 8006 ft 276 kts
2026-05-07 13:56 51.27938 -0.93409 7617 ft 266 kts
2026-05-07 13:56 51.29764 -0.93357 7224 ft 258 kts
2026-05-07 13:56 51.31538 -0.93314 6822 ft 252 kts
2026-05-07 13:56 51.33271 -0.93275 6425 ft 246 kts
2026-05-07 13:57 51.34957 -0.93238 6035 ft 239 kts
2026-05-07 13:57 51.36566 -0.92742 5637 ft 236 kts 24°
2026-05-07 13:57 51.38014 -0.91521 5424 ft 231 kts 30°
2026-05-07 13:57 51.39377 -0.90247 5299 ft 223 kts 31°
2026-05-07 13:58 51.40684 -0.89009 5191 ft 213 kts 31°
2026-05-07 13:58 51.41912 -0.87842 5079 ft 203 kts 31°
2026-05-07 13:58 51.43105 -0.86709 4934 ft 196 kts 31°
2026-05-07 13:58 51.44262 -0.85613 4765 ft 189 kts 31°
2026-05-07 13:59 51.45385 -0.84556 4506 ft 187 kts 31°
2026-05-07 13:59 51.46468 -0.83406 4239 ft 186 kts 43°
2026-05-07 13:59 51.47234 -0.81782 4051 ft 181 kts 65°
2026-05-07 13:59 51.47508 -0.80525 3922 ft 180 kts 79°
2026-05-07 14:00 51.47586 -0.78536 3722 ft 180 kts 90°
2026-05-07 14:00 51.47600 -0.76485 3478 ft 186 kts 90°
2026-05-07 14:00 51.47613 -0.74415 3229 ft 186 kts 90°
2026-05-07 14:00 51.47626 -0.72352 2979 ft 183 kts 90°
2026-05-07 14:01 51.47639 -0.70321 2742 ft 181 kts 90°
2026-05-07 14:01 51.47650 -0.68312 2495 ft 179 kts 90°
2026-05-07 14:01 51.47661 -0.66329 2260 ft 176 kts 89°
2026-05-07 14:01 51.47672 -0.64376 2025 ft 171 kts 89°
2026-05-07 14:02 51.47682 -0.62506 1807 ft 165 kts 89°
2026-05-07 14:02 51.47692 -0.60680 1625 ft 162 kts 88°
2026-05-07 14:02 51.47701 -0.58897 1389 ft 159 kts 88°
2026-05-07 14:02 51.47709 -0.57197 1171 ft 147 kts 88°
2026-05-07 14:03 51.47716 -0.55579 989 ft 144 kts 88°
2026-05-07 14:03 51.47726 -0.53984 789 ft 142 kts 88°
2026-05-07 14:03 51.47736 -0.52407 610 ft 140 kts 88°
2026-05-07 14:03 51.47747 -0.50844 410 ft 141 kts 88°
2026-05-07 14:04 51.47754 -0.49275 237 ft 141 kts 88°
2026-05-07 14:04 51.47752 -0.47711 94 ft 134 kts 89°
2026-05-07 14:04 51.47759 -0.46455 90 ft 89 kts 90°
2026-05-07 14:04 51.47760 -0.45752 85 ft 38 kts 89°
2026-05-07 14:05 51.47748 -0.45508 85 ft 18 kts 126°
2026-05-07 14:05 51.47657 -0.45466 87 ft 7 kts 179°
2026-05-07 14:05 51.47603 -0.45491 88 ft 9 kts 222°
2026-05-07 14:05 51.47596 -0.45598 86 ft 11 kts 270°
2026-05-07 14:06 51.47596 -0.45733 86 ft 13 kts 270°
2026-05-07 14:06 51.47595 -0.45893 89 ft 16 kts 269°
2026-05-07 14:06 51.47595 -0.46085 88 ft 18 kts 270°
2026-05-07 14:06 51.47594 -0.46303 86 ft 21 kts 269°
2026-05-07 14:07 51.47592 -0.46542 86 ft 23 kts 269°
2026-05-07 14:07 51.47591 -0.46786 88 ft 15 kts 270°
2026-05-07 14:07 51.47583 -0.46966 86 ft 17 kts 270°
2026-05-07 14:07 51.47582 -0.47174 86 ft 20 kts 269°
2026-05-07 14:08 51.47581 -0.47410 89 ft 22 kts 270°
2026-05-07 14:08 51.47580 -0.47671 86 ft 24 kts 270°
2026-05-07 14:08 51.47579 -0.47955 86 ft 26 kts 270°
2026-05-07 14:08 51.47579 -0.48198 90 ft 22 kts 269°
2026-05-07 14:09 51.47578 -0.48421 86 ft 17 kts 270°
2026-05-07 14:09 51.47518 -0.48471 88 ft 9 kts 181°
2026-05-07 14:09 51.47445 -0.48475 89 ft 12 kts 182°
2026-05-07 14:09 51.47352 -0.48473 86 ft 15 kts 179°
2026-05-07 14:10 51.47242 -0.48472 88 ft 17 kts 180°
2026-05-07 14:10 51.47111 -0.48473 86 ft 20 kts 180°
2026-05-07 14:10 51.46962 -0.48470 90 ft 23 kts 179°
2026-05-07 14:10 51.46882 -0.48478 88 ft 10 kts 213°
2026-05-07 14:11 51.46877 -0.48579 86 ft 10 kts 268°
2026-05-07 14:11 51.46877 -0.48708 88 ft 13 kts 270°
2026-05-07 14:11 51.46877 -0.48812 86 ft 1 kts 270°
2026-05-07 14:11 51.46877 -0.48835 89 ft 3 kts 270°
2026-05-07 14:12 51.46893 -0.48858 89 ft 4 kts 353°
2026-05-07 14:12 51.46921 -0.48859 86 ft 0 kts 359°
2026-05-07 14:12 51.46930 -0.48859 88 ft 0 kts 359°